Starlink 4139

operational
NORAD ID: 52879 Int'l Des: 2022-062 Owner: SPXS Country: US Constellation: starlink
LEOCIRCULAR

About Starlink 4139

Description loading...

Live Position

Loading 3D Globe...

Upcoming Passes

Altitude History

Altitude vs Time

uPlot chart will show altitude changes over time

Two-Line Element Set

1 52879U 22062BB 25354.75698468 .00000213 00000-0 31499-4 0 9991
2 52879 53.2192 8.4663 0001205 91.4115 268.7015 15.08835861194155
Epoch: Dec 20, 2025 • Age: 8 hours

Current Status

Altitude 544.1 km
Velocity 7.60 km/s
Sub-Earth Point 46.53°N, 67.35°W
Launch Date Jun 17, 2022
Age 3.5 years
Type internet

Technical Details

Classification Payload
Mass 297.00 kg
Dry Mass 275.00 kg
Total Mass 297.00 kg
Length 0.20 m
Diameter 2.80 m
Span 9.00 m
Shape Box + pan
Manufacturer SPXS
Bus Type Starlink
Phase Status In Orbit
Owner/State SPXS/US

Large Constellations

Loading constellations...